H1 CPF 2 NER 2023 9 16 9 259 01 glonass143 H2 2007501 9143 46805 2023 9 16 0 0 0 2023 9 19 23 45 0 900 1 1 0 0 0 1 H9 10 0 60203 0.00000 0 17788180.289 16770979.510 7262483.689 10 0 60203 900.00000 0 18351383.042 17214270.353 4150327.650 10 0 60203 1800.00000 0 18673574.301 17338309.468 957482.480 10 0 60203 2700.00000 0 18709967.390 17175762.636 -2253980.412 10 0 60203 3600.00000 0 18425048.490 16768931.850 -5421600.755 10 0 60203 4500.00000 0 17794257.573 16167788.073 -8483750.775 10 0 60203 5400.00000 0 16805222.699 15427693.849 -11380841.668 10 0 60203 6300.00000 0 15458494.077 14606912.782 -14056490.812 10 0 60203 7200.00000 0 13767745.583 13764011.994 -16458626.084 10 0 60203 8100.00000 0 11759433.974 12955268.223 -18540505.088 10 0 60203 9000.00000 0 9471929.072 12232187.934 -20261628.943 10 0 60203 9900.00000 0 6954150.568 11639246.790 -21588532.560 10 0 60203 10800.00000 0 4263767.914 11211944.339 -22495435.987 10 0 60203 11700.00000 0 1465038.040 10975256.166 -22964744.360 10 0 60203 12600.00000 0 -1373629.187 10942548.740 -22987387.025 10 0 60203 13500.00000 0 -4182276.628 11115002.470 -22562989.649 10 0 60203 14400.00000 0 -6892068.552 11481566.904 -21699876.424 10 0 60203 15300.00000 0 -9437911.658 12019449.480 -20414902.671 10 0 60203 16200.00000 0 -11760920.007 12695116.739 -18733121.488 10 0 60203 17100.00000 0 -13810622.033 13465765.288 -16687291.128 10 0 60203 18000.00000 0 -15546818.657 14281200.061 -14317232.933 10 0 60203 18900.00000 0 -16941016.209 15086040.219 -11669052.470 10 0 60203 19800.00000 0 -17977375.709 15822159.335 -8794239.180 10 0 60203 20700.00000 0 -18653140.298 16431256.559 -5748662.265 10 0 60203 21600.00000 0 -18978524.534 16857450.056 -2591482.588 10 0 60203 22500.00000 0 -18976071.813 17049783.072 615998.028 10 0 60203 23400.00000 0 -18679508.453 16964536.746 3811527.427 10 0 60203 24300.00000 0 -18132143.998 16567252.028 6933110.327 10 0 60203 25200.00000 0 -17384886.237 15834375.383 9920208.572 10 0 60203 26100.00000 0 -16493955.302 14754458.842 12714911.133 10 0 60203 27000.00000 0 -15518393.641 13328863.736 15263051.401 10 0 60203 27900.00000 0 -14517476.776 11571938.167 17515250.571 10 0 60203 28800.00000 0 -13548133.641 9510660.257 19427867.486 10 0 60203 29700.00000 0 -12662484.527 7183761.280 20963837.341 10 0 60203 30600.00000 0 -11905599.453 4640364.275 22093383.830 10 0 60203 31500.00000 0 -11313570.419 1938193.609 22794591.718 10 0 60203 32400.00000 0 -10911977.813 -858571.422 23053829.455 10 0 60203 33300.00000 0 -10714814.808 -3681711.386 22866014.028 10 0 60203 34200.00000 0 -10723914.641 -6461551.158 22234713.082 10 0 60203 35100.00000 0 -10928904.819 -9129608.352 21172082.095 10 0 60203 36000.00000 0 -11307690.500 -11621197.192 19698637.292 10 0 60203 36900.00000 0 -11827447.335 -13877880.867 17842867.857 10 0 60203 37800.00000 0 -12446082.730 -15849671.331 15640693.968 10 0 60203 38700.00000 0 -13114104.874 -17496885.614 13134779.997 10 0 60203 39600.00000 0 -13776821.464 -18791581.596 10373715.190 10 0 60203 40500.00000 0 -14376775.922 -19718513.379 7411076.800 10 0 60203 41400.00000 0 -14856318.472 -20275566.320 4304393.211 10 0 60203 42300.00000 0 -15160203.242 -20473653.375 1114026.931 10 0 60203 43200.00000 0 -15238101.068 -20336077.137 -2098000.802 10 0 60203 44100.00000 0 -15046920.755 -19897384.514 -5269220.556 10 0 60203 45000.00000 0 -14552839.427 -19201762.553 -8337936.147 10 0 60203 45900.00000 0 -13732954.682 -18301043.571 -11244432.366 10 0 60203 46800.00000 0 -12576487.207 -17252404.351 -13932144.618 10 0 60203 47700.00000 0 -11085481.584 -16115857.275 -16348766.758 10 0 60203 48600.00000 0 -9274974.314 -14951640.051 -18447274.880 10 0 60203 49500.00000 0 -7172620.686 -13817614.881 -20186846.610 10 0 60203 50400.00000 0 -4817795.104 -12766787.335 -21533657.709 10 0 60203 51300.00000 0 -2260201.681 -11845049.894 -22461540.466 10 0 60203 52200.00000 0 441947.472 -11089245.305 -22952491.253 10 0 60203 53100.00000 0 3224110.712 -10525631.188 -22997017.681 10 0 60203 54000.00000 0 6017861.654 -10168810.079 -22594318.999 10 0 60203 54900.00000 0 8753498.867 -10021169.359 -21752296.681 10 0 60203 55800.00000 0 11362712.179 -10072853.859 -20487395.333 10 0 60203 56700.00000 0 13781195.113 -10302271.453 -18824277.389 10 0 60203 57600.00000 0 15951095.262 -10677109.460 -16795338.131 10 0 60203 58500.00000 0 17823201.273 -11155818.165 -14440070.700 10 0 60203 59400.00000 0 19358776.117 -11689498.130 -11804293.610 10 0 60203 60300.00000 0 20530961.257 -12224110.953 -8939255.949 10 0 60203 61200.00000 0 21325694.185 -12702919.580 -5900637.895 10 0 60203 62100.00000 0 21742102.333 -13069054.601 -2747466.230 10 0 60203 63000.00000 0 21792358.238 -13268097.784 459033.838 10 0 60203 63900.00000 0 21501003.470 -13250573.410 3656627.894 10 0 60203 64800.00000 0 20903771.048 -12974242.016 6783279.293 10 0 60203 65700.00000 0 20045956.988 -12406099.566 9778350.328 10 0 60203 66600.00000 0 18980410.352 -11523997.577 12583774.273 10 0 60203 67500.00000 0 17765226.913 -10317815.759 15145175.801 10 0 60203 68400.00000 0 16461243.607 -8790137.461 17412918.506 10 0 60203 69300.00000 0 15129438.963 -6956399.047 19343059.785 10 0 60203 70200.00000 0 13828348.232 -4844506.178 20898195.390 10 0 60203 71100.00000 0 12611601.012 -2493931.977 22048178.110 10 0 60203 72000.00000 0 11525683.787 45666.533 22770697.447 10 0 60203 72900.00000 0 10608020.299 2716257.549 23051709.751 10 0 60203 73800.00000 0 9885449.333 5453595.583 22885710.923 10 0 60203 74700.00000 0 9373163.050 8189646.343 22275846.533 10 0 60203 75600.00000 0 9074149.934 10855176.391 21233857.051 10 0 60203 76500.00000 0 8979165.510 13382401.501 19779858.695 10 0 60203 77400.00000 0 9067232.230 15707584.995 17941963.344 10 0 60203 78300.00000 0 9306647.788 17773478.984 15755743.870 10 0 60203 79200.00000 0 9656459.944 19531507.582 13263554.112 10 0 60203 80100.00000 0 10068346.188 20943601.391 10513715.655 10 0 60203 81000.00000 0 10488819.376 21983606.698 7559586.272 10 0 60203 81900.00000 0 10861666.351 22638210.331 4458527.444 10 0 60203 82800.00000 0 11130516.359 22907341.116 1270790.746 10 0 60203 83700.00000 0 11241430.148 22804030.880 -1941655.241 10 0 60203 84600.00000 0 11145399.361 22353740.657 -5116334.301 10 0 60203 85500.00000 0 10800649.312 21593180.477 -8191484.043 10 0 60204 0.00000 0 10174646.392 20568672.752 -11107264.597 10 0 60204 900.00000 0 9245723.336 19334128.024 -13806931.658 10 0 60204 1800.00000 0 8004252.982 17948720.389 -16237946.281 10 0 60204 2700.00000 0 6453318.385 16474359.376 -18353004.308 10 0 60204 3600.00000 0 4608850.371 14973066.719 -20110960.915 10 0 60204 4500.00000 0 2499225.226 13504368.540 -21477633.588 10 0 60204 5400.00000 0 164338.355 12122813.106 -22426467.561 10 0 60204 6300.00000 0 -2345808.164 10875718.642 -22939050.992 10 0 60204 7200.00000 0 -4972945.764 9801245.712 -23005470.099 10 0 60204 8100.00000 0 -7652731.011 8926874.684 -22624497.816 10 0 60204 9000.00000 0 -10317197.775 8268351.469 -21803612.682 10 0 60204 9900.00000 0 -12897368.094 7829144.928 -20558848.013 10 0 60204 10800.00000 0 -15325913.413 7600437.579 -18914474.622 10 0 60204 11700.00000 0 -17539755.776 7561648.828 -16902523.486 10 0 60204 12600.00000 0 -19482501.075 7681467.466 -14562157.879 10 0 60204 13500.00000 0 -21106603.517 7919348.788 -11938907.322 10 0 60204 14400.00000 0 -22375171.759 8227412.117 -9083778.412 10 0 60204 15300.00000 0 -23263342.085 8552657.734 -6052260.028 10 0 60204 16200.00000 0 -23759162.259 8839408.782 -2903242.492 10 0 60204 17100.00000 0 -23863950.151 9031874.359 302128.044 10 0 60204 18000.00000 0 -23592113.290 9076724.969 3501637.426 10 0 60204 18900.00000 0 -22970438.096 8925571.159 6633210.214 10 0 60204 19800.00000 0 -22036879.685 8537240.373 9636111.763 10 0 60204 20700.00000 0 -20838903.984 7879755.728 12452122.280 10 0 60204 21600.00000 0 -19431452.383 6931933.029 15026660.323 10 0 60204 22500.00000 0 -17874614.685 5684528.504 17309834.372 10 0 60204 23400.00000 0 -16231107.957 4140888.537 19257402.694 10 0 60204 24300.00000 0 -14563666.619 2317073.450 20831623.643 10 0 60204 25200.00000 0 -12932452.425 241449.236 22001980.815 10 0 60204 26100.00000 0 -11392591.901 -2046236.927 22745769.762 10 0 60204 27000.00000 0 -9991943.235 -4496260.219 23048535.621 10 0 60204 27900.00000 0 -8769184.959 -7050743.977 22904353.636 10 0 60204 28800.00000 0 -7752305.436 -9645833.462 22315947.287 10 0 60204 29700.00000 0 -6957555.510 -12214128.948 21294641.566 10 0 60204 30600.00000 0 -6388907.616 -14687278.597 19860151.789 10 0 60204 31500.00000 0 -6038043.684 -16998624.663 18040211.217 10 0 60204 32400.00000 0 -5884872.276 -19085794.038 15870043.719 10 0 60204 33300.00000 0 -5898553.310 -20893125.966 13391690.568 10 0 60204 34200.00000 0 -6038987.465 -22373836.033 10653203.363 10 0 60204 35100.00000 0 -6258707.655 -23491826.075 7707717.848 10 0 60204 36000.00000 0 -6505092.842 -24223064.056 4612425.881 10 0 60204 36900.00000 0 -6722810.458 -24556475.638 1427465.274 10 0 60204 37800.00000 0 -6856383.725 -24494309.568 -1785250.944 10 0 60204 38700.00000 0 -6852774.457 -24051961.057 -4963242.720 10 0 60204 39600.00000 0 -6663870.963 -23257260.270 -8044684.416 10 0 60204 40500.00000 0 -6248774.446 -22149255.763 -10969614.956 10 0 60204 41400.00000 0 -5575785.696 -20776544.175 -13681112.173 10 0 60204 42300.00000 0 -4624006.513 -19195216.815 -16126407.641 10 0 60204 43200.00000 0 -3384486.722 -17466510.026 -18257919.519 10 0 60204 44100.00000 0 -1860866.902 -15654258.663 -20034182.818 10 0 60204 45000.00000 0 -69488.455 -13822260.238 -21420658.633 10 0 60204 45900.00000 0 1961034.801 -12031660.802 -22390406.589 10 0 60204 46800.00000 0 4190766.544 -10338472.403 -22924607.558 10 0 60204 47700.00000 0 6569880.383 -8791326.137 -23012926.793 10 0 60204 48600.00000 0 9040515.575 -7429554.560 -22653710.831 10 0 60204 49500.00000 0 11538979.058 -6281683.067 -21854014.738 10 0 60204 50400.00000 0 13998202.292 -5364392.493 -20629459.569 10 0 60204 51300.00000 0 16350350.823 -4681995.182 -19003923.135 10 0 60204 52200.00000 0 18529478.053 -4226445.102 -17009070.336 10 0 60204 53100.00000 0 20474112.885 -3977880.107 -14683732.406 10 0 60204 54000.00000 0 22129673.618 -3905672.041 -12073147.305 10 0 60204 54900.00000 0 23450607.833 -3969939.050 -9228076.175 10 0 60204 55800.00000 0 24402169.344 -4123455.038 -6203813.291 10 0 60204 56700.00000 0 24961758.638 -4313874.564 -3059108.946 10 0 60204 57600.00000 0 25119771.477 -4486178.280 144973.498 10 0 60204 58500.00000 0 24879921.019 -4585234.820 3346243.892 10 0 60204 59400.00000 0 24259020.872 -4558370.341 6482591.637 10 0 60204 60300.00000 0 23286239.097 -4357836.729 9493188.531 10 0 60204 61200.00000 0 22001855.236 -3943073.976 12319664.734 10 0 60204 62100.00000 0 20455573.083 -3282671.047 14907235.269 10 0 60204 63000.00000 0 18704460.248 -2355942.348 17205755.620 10 0 60204 63900.00000 0 16810600.864 -1154053.126 19170686.527 10 0 60204 64800.00000 0 14838559.358 319354.009 20763950.083 10 0 60204 65700.00000 0 12852760.750 2048058.479 21954661.350 10 0 60204 66600.00000 0 10914896.048 4003692.291 22719722.136 10 0 60204 67500.00000 0 9081460.059 6146685.041 23044266.133 10 0 60204 68400.00000 0 7401523.171 8427685.502 22921947.274 10 0 60204 69300.00000 0 5914829.018 10789402.193 22355065.878 10 0 60204 70200.00000 0 4650296.381 13168788.011 21354530.004 10 0 60204 71100.00000 0 3624987.007 15499479.682 19939652.249 10 0 60204 72000.00000 0 2843581.915 17714391.899 18137785.135 10 0 60204 72900.00000 0 2298387.656 19748359.314 15983801.159 10 0 60204 73800.00000 0 1969872.051 21540717.074 13519426.457 10 0 60204 74700.00000 0 1827706.823 23037712.613 10792439.934 10 0 60204 75600.00000 0 1832273.209 24194647.932 7855752.497 10 0 60204 76500.00000 0 1936566.993 24977662.437 4766383.536 10 0 60204 77400.00000 0 2088422.331 25365081.006 1584354.248 10 0 60204 78300.00000 0 2232959.914 25348270.050 -1628480.690 10 0 60204 79200.00000 0 2315155.221 24931964.847 -4809640.056 10 0 60204 80100.00000 0 2282417.173 24134053.783 -7897237.465 10 0 60204 81000.00000 0 2087066.846 22984828.077 -10831192.627 10 0 60204 81900.00000 0 1688609.937 21525728.342 -13554408.017 10 0 60204 82800.00000 0 1055705.399 19807640.677 -16013887.137 10 0 60204 83700.00000 0 167745.563 17888814.134 -18161771.867 10 0 60204 84600.00000 0 -984020.432 15832487.348 -19956278.191 10 0 60204 85500.00000 0 -2395868.524 13704324.368 -21362511.733 10 0 60205 0.00000 0 -4051514.035 11569767.687 -22353147.136 10 0 60205 900.00000 0 -5922563.894 9491418.413 -22908958.656 10 0 60205 1800.00000 0 -7969486.418 7526556.055 -23019190.728 10 0 60205 2700.00000 0 -10143061.632 5724897.530 -22681763.462 10 0 60205 3600.00000 0 -12386249.852 4126691.303 -21903308.099 10 0 60205 4500.00000 0 -14636401.653 2761224.304 -20699032.700 10 0 60205 5400.00000 0 -16827717.096 1645803.000 -19092420.962 10 0 60205 6300.00000 0 -18893851.752 785249.834 -17114770.217 10 0 60205 7200.00000 0 -20770560.906 171934.518 -14804577.832 10 0 60205 8100.00000 0 -22398271.669 -213662.831 -12206788.106 10 0 60205 9000.00000 0 -23724475.748 -401882.073 -9371914.436 10 0 60205 9900.00000 0 -24705843.092 -432353.545 -6355054.047 10 0 60205 10800.00000 0 -25309968.344 -352074.617 -3214814.671 10 0 60205 11700.00000 0 -25516677.454 -213174.667 -12174.278 10 0 60205 12600.00000 0 -25318840.289 -70463.923 3190703.646 10 0 60205 13500.00000 0 -24722655.811 21129.545 6331676.037 10 0 60205 14400.00000 0 -23747398.552 9125.791 9349823.844 10 0 60205 15300.00000 0 -22424637.604 -154046.810 12186629.873 10 0 60205 16200.00000 0 -20796961.348 -508801.223 14787108.223 10 0 60205 17100.00000 0 -18916261.576 -1086446.350 17100863.828 10 0 60205 18000.00000 0 -16841648.819 -1907628.675 19083062.131 10 0 60205 18900.00000 0 -14637085.747 -2981226.844 20695290.858 10 0 60205 19800.00000 0 -12368836.823 -4303746.089 21906298.052 10 0 60205 20700.00000 0 -10102839.786 -5859238.651 22692592.867 10 0 60205 21600.00000 0 -7902107.430 -7619754.602 23038898.191 10 0 60205 22500.00000 0 -5824266.703 -9546305.537 22938446.842 10 0 60205 23400.00000 0 -3919336.399 -11590302.419 22393115.747 10 0 60205 24300.00000 0 -2227834.827 -13695409.254 21413395.405 10 0 60205 25200.00000 0 -779295.260 -15799736.963 20018194.698 10 0 60205 26100.00000 0 408749.731 -17838287.459 18234484.069 10 0 60205 27000.00000 0 1331273.300 -19745547.287 16096782.978 10 0 60205 27900.00000 0 1995728.023 -21458123.492 13646500.464 10 0 60205 28800.00000 0 2421489.667 -22917312.085 10931140.512 10 0 60205 29700.00000 0 2638794.620 -24071491.784 8003386.747 10 0 60205 30600.00000 0 2687215.897 -24878242.465 4920083.470 10 0 60205 31500.00000 0 2613742.285 -25306098.846 1741132.534 10 0 60205 32400.00000 0 2470542.154 -25335864.931 -1471672.536 10 0 60205 33300.00000 0 2312507.153 -24961433.023 -4655852.174 10 0 60205 34200.00000 0 2194680.568 -24190071.919 -7749462.072 10 0 60205 35100.00000 0 2169680.298 -23042171.355 -10692305.526 10 0 60205 36000.00000 0 2285226.785 -21550452.836 -13427112.384 10 0 60205 36900.00000 0 2581881.869 -19758679.666 -15900660.689 10 0 60205 37800.00000 0 3091095.539 -17719920.245 -18064818.476 10 0 60205 38700.00000 0 3833644.477 -15494437.580 -19877484.877 10 0 60205 39600.00000 0 4818529.476 -13147293.727 -21303411.881 10 0 60205 40500.00000 0 6042379.333 -10745769.666 -22314890.726 10 0 60205 41400.00000 0 7489387.220 -8356708.713 -22892289.691 10 0 60205 42300.00000 0 9131782.993 -6043894.489 -23024433.140 10 0 60205 43200.00000 0 10930822.261 -3865572.696 -22708814.846 10 0 60205 44100.00000 0 12838251.220 -1872219.591 -21951641.875 10 0 60205 45000.00000 0 14798186.288 -104649.523 -20767708.560 10 0 60205 45900.00000 0 16749330.090 1407460.620 -19180103.354 10 0 60205 46800.00000 0 18627431.293 2646569.797 -17219754.511 10 0 60205 47700.00000 0 20367885.442 3607753.868 -14924823.647 10 0 60205 48600.00000 0 21908368.041 4298650.931 -12339959.126 10 0 60205 49500.00000 0 23191389.752 4738875.057 -9515423.937 10 0 60205 50400.00000 0 24166666.772 4958924.834 -6506115.257 10 0 60205 51300.00000 0 24793207.222 4998634.356 -3370494.969 10 0 60205 52200.00000 0 25041026.333 4905233.414 -169452.181 10 0 60205 53100.00000 0 24892418.804 4731100.023 3034879.819 10 0 60205 54000.00000 0 24342735.334 4531301.173 6180328.974 10 0 60205 54900.00000 0 23400631.197 4361026.384 9205888.684 10 0 60205 55800.00000 0 22087776.783 4273022.988 12052897.422 10 0 60205 56700.00000 0 20438042.562 4315141.622 14666171.035 10 0 60205 57600.00000 0 18496192.679 4528095.646 16995066.205 10 0 60205 58500.00000 0 16316141.775 4943528.943 18994454.957 10 0 60205 59400.00000 0 13958847.456 5582473.541 20625592.133 10 0 60205 60300.00000 0 11489925.721 6454262.105 21856859.836 10 0 60205 61200.00000 0 8977087.845 7555941.385 22664375.232 10 0 60205 62100.00000 0 6487504.302 8872211.918 23032450.661 10 0 60205 63000.00000 0 4085204.133 10375897.501 22953897.643 10 0 60205 63900.00000 0 1828616.620 12028926.047 22430169.099 10 0 60205 64800.00000 0 -231643.810 13783782.287 21471336.898 10 0 60205 65700.00000 0 -2054658.462 15585373.161 20095904.705 10 0 60205 66600.00000 0 -3610673.712 17373229.473 18330458.980 10 0 60205 67500.00000 0 -4882098.331 19083953.125 16209163.907 10 0 60205 68400.00000 0 -5863987.782 20653808.675 13773108.902 10 0 60205 69300.00000 0 -6563995.606 22021351.389 11069520.319 10 0 60205 70200.00000 0 -7001794.287 23129981.923 8150851.658 10 0 60205 71100.00000 0 -7207990.195 23930320.307 5073769.221 10 0 60205 72000.00000 0 -7222578.599 24382298.920 1898052.596 10 0 60205 72900.00000 0 -7093004.342 24456885.612 -1314568.725 10 0 60205 73800.00000 0 -6871910.671 24137363.396 -4501619.639 10 0 60205 74700.00000 0 -6614672.205 23420111.698 -7601100.562 10 0 60205 75600.00000 0 -6376817.368 22314855.186 -10552700.837 10 0 60205 76500.00000 0 -6211450.535 20844368.730 -13298979.895 10 0 60205 77400.00000 0 -6166784.156 19043650.166 -15786492.270 10 0 60205 78300.00000 0 -6283886.535 16958595.129 -17966833.810 10 0 60205 79200.00000 0 -6594741.613 14644229.255 -19797588.177 10 0 60205 80100.00000 0 -7120703.831 12162571.794 -21243154.857 10 0 60205 81000.00000 0 -7871414.156 9580220.044 -22275442.489 10 0 60205 81900.00000 0 -8844223.769 6965755.616 -22874414.187 10 0 60205 82800.00000 0 -10024150.285 4387080.794 -23028474.505 10 0 60205 83700.00000 0 -11384368.795 1908795.904 -22734690.955 10 0 60205 84600.00000 0 -12887217.505 -410273.407 -21998846.164 10 0 60205 85500.00000 0 -14485675.946 -2519296.585 -20835320.098 10 0 60206 0.00000 0 -16125253.786 -4377314.541 -19266805.093 10 0 60206 900.00000 0 -17746211.983 -5954695.905 -17323858.640 10 0 60206 1800.00000 0 -19286020.966 -7234111.431 -15044304.961 10 0 60206 2700.00000 0 -20681955.663 -8210990.790 -12472494.427 10 0 60206 3600.00000 0 -21873716.306 -8893441.915 -9658437.332 10 0 60206 4500.00000 0 -22805965.866 -9301639.141 -6656828.335 10 0 60206 5400.00000 0 -23430677.467 -9466707.505 -3525980.878 10 0 60206 6300.00000 0 -23709193.262 -9429151.817 -326692.522 10 0 60206 7200.00000 0 -23613908.385 -9236898.167 2878936.401 10 0 60206 8100.00000 0 -23129509.446 -8943031.710 6028707.653 10 0 60206 9000.00000 0 -22253715.732 -8603327.102 9061529.914 10 0 60206 9900.00000 0 -20997492.205 -8273676.482 11918600.124 10 0 60206 10800.00000 0 -19384725.444 -8007523.885 14544538.604 10 0 60206 11700.00000 0 -17451376.093 -7853414.422 16888456.332 10 0 60206 12600.00000 0 -15244143.023 -7852761.501 18904934.222 10 0 60206 13500.00000 0 -12818694.572 -8037925.985 20554896.216 10 0 60206 14400.00000 0 -10237539.889 -8430688.008 21806360.066 10 0 60206 15300.00000 0 -7567628.114 -9041175.733 22635052.118 10 0 60206 16200.00000 0 -4877774.104 -9867296.300 23024874.887 10 0 60206 17100.00000 0 -2236016.358 -10894693.393 22968218.892 10 0 60206 18000.00000 0 292984.462 -12097234.077 22466112.928 10 0 60206 18900.00000 0 2650399.723 -13438005.635 21528209.742 10 0 60206 19800.00000 0 4785439.054 -14870782.004 20172606.942 10 0 60206 20700.00000 0 6657217.940 -16341899.773 18425505.833 10 0 60206 21600.00000 0 8236209.827 -17792466.503 16320713.821 10 0 60206 22500.00000 0 9505222.880 -19160809.976 13898998.891 10 0 60206 23400.00000 0 10459861.050 -20385066.413 11207307.631 10 0 60206 24300.00000 0 11108450.496 -21405799.451 8297860.983 10 0 60206 25200.00000 0 11471434.750 -22168539.814 5227144.568 10 0 60206 26100.00000 0 11580264.310 -22626138.357 2054812.816 10 0 60206 27000.00000 0 11475827.809 -22740832.637 -1157471.831 10 0 60206 27900.00000 0 11206491.430 -22485938.850 -4347241.801 10 0 60206 28800.00000 0 10825830.088 -21847096.552 -7452445.294 10 0 60206 29700.00000 0 10390147.102 -20823012.417 -10412660.683 10 0 60206 30600.00000 0 9955888.309 -19425670.449 -13170279.841 10 0 60206 31500.00000 0 9577061.054 -17679998.725 -15671636.478 10 0 60206 32400.00000 0 9302768.360 -15623005.795 -17868056.717 10 0 60206 33300.00000 0 9174963.530 -13302422.366 -19716810.928 10 0 60206 34200.00000 0 9226521.019 -10774904.798 -21181947.913 10 0 60206 35100.00000 0 9479705.716 -8103875.379 -22234995.138 10 0 60206 36000.00000 0 9945105.836 -5357089.416 -22855511.534 10 0 60206 36900.00000 0 10621074.741 -2604030.634 -23031482.371 10 0 60206 37800.00000 0 11493705.476 86756.808 -22759548.966 10 0 60206 38700.00000 0 12537339.174 2650288.889 -22045069.157 10 0 60206 39600.00000 0 13715586.000 5027606.297 -20902007.772 10 0 60206 40500.00000 0 14982815.650 7167981.147 -19352659.585 10 0 60206 41400.00000 0 16286054.689 9030775.013 -17427210.381 10 0 60206 42300.00000 0 17567210.867 10586871.997 -15163144.895 10 0 60206 43200.00000 0 18765530.760 11819628.570 -12604513.302 10 0 60206 44100.00000 0 19820187.313 12725302.139 -9801070.665 10 0 60206 45000.00000 0 20672888.301 13312942.136 -6807306.285 10 0 60206 45900.00000 0 21270395.894 13603750.044 -3681382.071 10 0 60206 46800.00000 0 21566851.243 13629936.977 -484000.777 10 0 60206 47700.00000 0 21525806.268 13433128.489 2722773.548 10 0 60206 48600.00000 0 21121877.174 13062385.176 5876719.763 10 0 60206 49500.00000 0 20341950.196 12571923.639 8916664.966 10 0 60206 50400.00000 0 19185888.932 12018634.662 11783667.476 10 0 60206 51300.00000 0 17666713.493 11459503.772 14422154.701 10 0 60206 52200.00000 0 15810243.768 10949043.064 16780994.214 10 0 60206 53100.00000 0 13654221.391 10536842.424 18814477.786 10 0 60206 54000.00000 0 11246946.536 10265343.002 20483200.072 10 0 60206 54900.00000 0 8645485.542 10167926.279 21754815.756 10 0 60206 55800.00000 0 5913523.067 10267398.745 22604661.279 10 0 60206 56700.00000 0 3118946.808 10574935.729 23016229.870 10 0 60206 57600.00000 0 331263.761 11089528.752 22981491.179 10 0 60206 58500.00000 0 -2381046.144 11797960.027 22501049.567 10 0 60206 59400.00000 0 -4953130.650 12675305.799 21584137.895 10 0 60206 60300.00000 0 -7326213.420 13685948.407 20248446.477 10 0 60206 61200.00000 0 -9449789.359 14785055.704 18519789.782 10 0 60206 62100.00000 0 -11283476.701 15920466.951 16431616.359 10 0 60206 63000.00000 0 -12798449.413 17034907.081 14024370.351 10 0 60206 63900.00000 0 -13978390.675 18068437.188 11344715.929 10 0 60206 64800.00000 0 -14819927.840 18961038.686 8444638.683 10 0 60206 65700.00000 0 -15332530.922 19655222.552 5380440.677 10 0 60206 66600.00000 0 -15537879.017 20098553.387 2211648.308 10 0 60206 67500.00000 0 -15468721.556 20245981.176 -1000145.878 10 0 60206 68400.00000 0 -15167282.746 20061881.355 -4192484.610 10 0 60206 69300.00000 0 -14683277.036 19521715.803 -7303266.547 10 0 60206 70200.00000 0 -14071620.127 18613243.257 -10271961.618 10 0 60206 71100.00000 0 -13389933.127 17337226.695 -13040796.491 10 0 60206 72000.00000 0 -12695946.284 15707606.515 -15555886.169 10 0 60206 72900.00000 0 -12044913.066 13751131.077 -17768288.913 10 0 60206 73800.00000 0 -11487144.729 11506459.117 -19634963.382 10 0 60206 74700.00000 0 -11065770.335 9022770.986 -21119608.990 10 0 60206 75600.00000 0 -10814817.359 6357946.299 -22193373.044 10 0 60206 76500.00000 0 -10757694.237 3576383.782 -22835411.011 10 0 60206 77400.00000 0 -10906139.020 746554.049 -23033289.309 10 0 60206 78300.00000 0 -11259678.380 -2061612.965 -22783223.181 10 0 60206 79200.00000 0 -11805619.612 -4779397.454 -22090145.458 10 0 60206 80100.00000 0 -12519575.667 -7341905.391 -20967605.271 10 0 60206 81000.00000 0 -13366500.791 -9690522.144 -19437499.058 10 0 60206 81900.00000 0 -14302192.821 -11775102.769 -17529639.343 10 0 60206 82800.00000 0 -15275198.515 -13555808.730 -15281169.894 10 0 60206 83700.00000 0 -16229041.371 -15004515.729 -12735838.817 10 0 60206 84600.00000 0 -17104677.779 -16105735.313 -9943143.847 10 0 60206 85500.00000 0 -17843077.746 -16857013.262 -6957366.674 99